Wind_Speed
13 13 12 12 13 12 12 12 12 11 11 12 12 13 13 13 13 13 13 13 13 13 13 12 12 11 11 12 12 12 12 12 12 12 12 11 11 11 11 11 11 11 11
12 12 12 12 12 12 12 12 12 12 12 12 13 13 13 13 13 14 14 14 14 14 14 13 12 12 12 12 12 12 13 13 13 13 13 13 12 12 12 12 12 12 11
12 12 12 12 13 13 13 12 12 12 13 13 13 13 13 13 13 13 13 14 14 14 13 13 13 13 13 12 12 13 13 13 13 13 13 13 13 13 13 13 13 13 12
12 12 13 13 13 13 14 13 14 14 14 14 14 14 14 13 13 13 14 14 14 15 15 15 15 15 14 14 13 13 13 13 13 13 13 13 13 13 13 13 13 13 13
12 13 13 14 14 14 14 14 15 15 15 16 15 15 15 14 14 14 14 14 14 15 15 15 15 15 15 15 14 14 14 13 13 14 14 14 14 14 14 14 13 14 14
13 13 14 14 15 15 15 15 16 16 16 15 15 15 15 15 15 15 15 15 15 15 15 15 15 15 16 15 14 15 14 14 14 14 14 14 14 14 14 14 14 14 14
12 13 14 14 15 15 16 16 17 17 17 17 16 16 16 16 15 15 15 15 15 15 15 15 15 15 15 15 15 16 16 15 15 15 14 14 14 14 14 14 15 14 14
13 13 13 14 14 14 15 16 16 17 17 17 17 16 16 17 16 15 16 16 16 16 15 15 15 16 16 16 16 16 16 16 15 15 15 15 15 15 15 15 15 15 15
13 14 14 14 15 15 15 16 16 17 17 17 16 15 16 16 16 17 17 17 16 16 16 16 15 16 16 16 16 17 16 16 15 15 16 16 16 16 16 16 16 16 15
14 14 15 16 16 16 16 17 17 17 16 16 16 16 16 16 16 16 16 17 17 17 18 18 18 17 16 16 16 16 16 16 15 15 16 16 16 16 16 16 17 17 17
15 15 16 17 17 17 17 17 18 18 17 17 17 17 16 16 16 16 17 17 18 17 18 19 19 19 18 17 17 17 17 17 17 17 17 17 17 17 17 17 17 17 17
18 17 17 17 17 17 18 18 18 18 18 18 18 18 18 17 17 17 18 18 18 18 19 19 20 20 20 20 19 19 19 19 19 19 18 18 17 18 18 18 19 19 19
18 18 18 18 18 18 18 18 18 18 19 19 19 19 19 19 19 19 19 19 20 19 20 20 20 21 21 22 22 22 20 20 20 20 20 20 20 19 19 20 20 20 20
18 18 19 19 19 18 19 19 18 19 19 20 20 20 21 20 20 20 20 21 21 21 21 22 22 22 22 23 23 23 23 23 22 22 22 22 22 22 21 21 21 21 21
20 20 20 20 20 20 20 19 19 20 20 20 20 21 21 21 21 21 21 22 22 23 23 23 23 23 23 23 23 24 24 24 24 24 24 24 24 25 24 23 23 23 22
21 21 21 21 21 21 21 21 20 20 21 21 21 21 21 21 21 21 22 22 22 23 23 23 24 24 25 25 24 25 25 25 26 26 25 26 26 27 27 26 26 26 25
21 22 21 21 21 21 21 21 21 21 21 22 22 22 22 22 22 21 21 22 22 23 23 24 24 24 25 25 25 26 26 26 27 27 27 27 27 27 27 28 28 28 27
22 22 22 22 22 22 22 22 22 21 21 22 22 22 22 23 23 22 22 22 22 22 23 24 24 24 24 25 26 26 26 27 27 27 28 28 28 28 28 29 29 29 29
21 22 22 22 23 23 24 24 24 23 23 22 22 22 22 23 24 24 24 23 23 23 23 24 23 24 24 25 26 26 27 27 27 28 28 27 27 28 28 29 30 29 29
22 22 22 23 24 24 25 24 24 24 24 24 24 23 24 24 25 25 26 26 25 25 24 24 25 25 25 25 26 27 27 28 28 28 28 29 29 29 28 29 30 30 30
23 23 23 24 24 24 24 24 24 24 24 24 25 25 25 25 26 26 26 26 26 26 26 26 26 26 26 26 27 28 28 28 28 29 29 29 29 29 29 30 30 31 31
24 24 24 24 24 24 25 25 24 24 24 25 25 26 26 27 28 28 28 28 28 27 26 26 26 27 27 27 28 28 28 28 28 28 29 31 31 30 30 30 30 30 31
25 24 24 25 25 25 25 25 25 25 25 25 26 27 28 28 29 29 29 30 29 28 28 28 28 29 29 29 29 28 28 28 28 29 30 30 31 31 30 30 29 30 30
25 25 25 25 25 25 25 25 26 26 26 26 26 27 29 29 30 29 30 30 30 30 30 30 30 31 31 31 31 30 29 29 29 29 30 30 30 31 30 31 31 31 31
25 25 25 25 25 25 26 26 27 27 28 28 29 29 30 30 30 31 31 31 31 31 31 32 32 32 33 33 33 32 32 31 31 30 30 30 30 31 31 31 31 32 32
25 25 26 26 26 26 27 28 28 29 29 30 30 30 30 31 31 32 32 33 33 33 33 33 33 33 33 33 34 33 33 33 32 32 31 31 31 31 32 32 32 32 32
Wind_Direction
271 273 275 273 272 274 274 273 275 272 267 268 269 270 273 273 272 272 273 274 273 271 270 270 270 266 265 262 260 259 257 258 261 263 264 267 269 270 270 273 277 278 276
272 271 271 271 272 274 276 276 275 273 272 270 272 274 275 277 274 272 272 270 269 271 271 268 267 266 264 261 260 260 261 261 260 260 262 265 267 268 269 271 272 274 274
271 270 273 275 275 276 278 278 276 273 272 271 271 275 278 281 278 275 272 270 269 271 270 268 265 266 265 264 262 259 261 262 261 260 262 263 264 266 269 269 270 271 273
273 274 274 275 277 276 278 278 279 275 272 273 273 275 278 280 278 274 273 272 271 271 270 268 264 263 264 265 265 262 261 261 262 263 264 264 264 266 267 268 268 269 271
275 276 278 277 277 277 278 279 280 278 275 276 275 277 279 281 279 274 271 271 272 272 272 270 266 262 263 264 264 261 260 260 261 264 264 263 263 265 267 268 267 269 270
274 277 279 280 278 277 278 278 279 280 279 277 280 277 279 281 281 277 271 271 271 271 271 271 269 266 262 262 261 260 258 259 261 263 265 265 264 264 266 267 267 268 270
276 281 282 281 280 279 278 277 278 279 279 278 280 278 278 278 278 277 272 270 270 270 269 269 268 265 262 259 259 261 259 261 264 264 265 266 265 265 265 266 267 269 271
278 283 286 285 283 282 282 280 279 280 280 280 280 280 279 277 278 278 273 270 268 266 267 269 266 263 262 261 262 262 262 262 264 263 264 265 266 267 266 267 267 267 270
277 281 285 287 286 286 287 285 284 283 282 282 282 280 279 279 277 275 271 269 269 268 267 267 266 265 263 261 263 263 263 263 264 263 263 265 267 266 266 267 266 267 270
276 278 283 286 288 289 289 287 285 284 284 283 283 281 279 278 275 272 271 270 268 268 267 265 264 263 265 266 266 263 262 261 262 265 264 266 268 265 265 268 267 266 268
281 282 282 284 287 287 288 286 283 282 282 282 282 281 281 280 276 274 275 273 270 268 266 264 263 264 266 263 262 262 260 261 262 265 265 267 269 269 267 268 268 268 269
284 283 283 283 285 286 287 286 284 282 280 280 281 282 283 280 277 275 273 272 271 271 269 268 266 263 264 263 263 262 262 262 264 264 265 267 270 271 270 269 269 269 269
284 283 284 284 285 286 287 287 283 282 279 279 279 279 281 282 279 277 275 273 272 270 270 267 264 263 263 263 265 264 263 263 264 264 265 266 267 270 271 270 270 270 269
284 284 283 283 282 284 285 287 283 282 280 280 279 279 279 278 278 277 278 278 275 271 270 266 266 264 263 263 266 265 262 262 262 263 264 265 267 269 270 270 271 271 269
283 283 283 283 283 283 285 285 283 282 281 280 279 279 278 277 276 277 278 279 276 273 272 270 267 266 265 266 268 266 265 263 261 263 263 265 267 269 270 269 270 270 269
283 283 283 282 283 284 285 285 282 281 279 278 278 279 279 278 277 278 279 279 276 274 272 271 269 269 268 267 267 267 267 265 265 266 265 266 267 268 268 269 269 269 269
283 282 283 282 282 283 284 284 284 282 280 278 277 278 279 279 278 279 280 279 278 276 275 272 273 270 269 269 269 268 267 268 267 267 267 267 268 267 266 267 268 268 268
286 284 282 282 282 282 282 282 284 283 282 280 279 279 278 278 278 278 278 277 277 278 279 277 273 271 272 271 270 271 270 269 269 268 268 267 267 267 266 267 268 268 267
290 287 284 282 283 283 283 283 284 283 282 282 280 280 279 277 278 279 278 278 277 278 278 278 276 273 274 274 272 272 273 272 272 271 269 268 267 266 267 268 269 269 268
291 289 286 284 283 284 283 283 283 282 281 281 280 279 279 279 280 280 279 278 278 279 278 277 277 276 276 275 274 274 274 274 274 273 270 269 269 267 268 269 270 271 270
289 288 286 286 284 283 283 282 281 281 281 280 280 278 278 278 278 279 279 278 278 277 276 276 276 276 276 276 276 275 275 275 274 274 272 272 271 270 269 270 270 271 271
287 287 286 286 285 284 284 284 282 282 281 281 281 280 278 278 278 278 278 279 278 277 275 274 274 275 275 276 277 277 276 275 274 273 274 274 273 271 270 271 270 270 270
285 285 285 285 285 285 285 284 283 283 282 282 282 281 280 279 278 278 279 279 278 276 276 275 275 276 276 277 278 277 275 275 275 275 275 276 274 273 271 270 270 270 270
285 283 284 285 285 285 286 285 285 285 284 283 283 283 282 281 280 279 279 278 277 276 276 277 277 277 276 277 276 276 275 274 275 275 276 275 273 273 273 271 271 271 270
284 284 283 283 284 284 285 285 285 285 285 284 284 283 282 281 280 280 279 278 278 278 278 278 278 278 277 275 275 274 275 275 274 274 273 273 273 272 273 272 272 272 271
285 284 284 285 284 284 284 284 285 286 286 285 285 285 284 282 281 280 280 279 279 279 279 278 278 278 277 276 275 274 274 274 272 272 273 272 273 274 274 272 272 271 271
Height
5830 5830 5830 5830 5829 5829 5829 5828 5828 5827 5827 5826 5826 5825 5824 5824 5823 5823 5822 5822 5822 5821 5821 5821 5821 5822 5822 5823 5824 5824 5825 5825 5826 5827 5827 5828 5828 5828 5828 5828 5828 5829 5829
5827 5827 5827 5827 5826 5826 5826 5826 5825 5824 5824 5823 5822 5822 5821 5820 5819 5819 5818 5818 5818 5818 5818 5818 5818 5819 5819 5820 5820 5821 5821 5822 5822 5823 5824 5825 5826 5825 5825 5825 5825 5826 5826
5824 5824 5824 5823 5824 5823 5823 5823 5822 5821 5821 5820 5819 5818 5817 5816 5816 5815 5814 5814 5814 5814 5814 5814 5815 5815 5816 5816 5817 5818 5818 5819 5819 5820 5821 5821 5822 5822 5822 5822 5822 5822 5822
5821 5821 5821 5821 5820 5820 5820 5819 5818 5818 5817 5817 5816 5815 5813 5813 5812 5811 5811 5810 5810 5810 5810 5810 5811 5811 5812 5813 5813 5814 5815 5815 5816 5816 5817 5818 5818 5818 5819 5819 5819 5819 5819
5818 5818 5817 5817 5817 5816 5816 5815 5815 5814 5814 5813 5812 5811 5810 5809 5808 5807 5807 5807 5806 5806 5806 5806 5806 5807 5808 5809 5809 5810 5811 5812 5812 5813 5813 5814 5814 5814 5815 5815 5815 5815 5816
5815 5814 5814 5813 5813 5813 5812 5811 5811 5811 5810 5809 5808 5807 5806 5805 5804 5803 5803 5803 5803 5802 5802 5802 5802 5803 5804 5805 5805 5806 5807 5808 5809 5809 5809 5810 5810 5810 5811 5811 5811 5811 5812
5812 5811 5811 5810 5810 5809 5808 5808 5807 5807 5806 5805 5804 5803 5802 5802 5801 5800 5799 5799 5799 5799 5798 5798 5799 5799 5800 5801 5802 5803 5803 5804 5805 5805 5806 5806 5806 5806 5807 5807 5807 5808 5808
5809 5808 5807 5807 5806 5805 5804 5804 5803 5802 5801 5801 5800 5799 5798 5797 5797 5796 5795 5795 5795 5795 5794 5795 5795 5795 5796 5797 5798 5799 5800 5800 5801 5801 5802 5802 5802 5802 5802 5803 5803 5804 5804
5805 5805 5804 5803 5803 5802 5801 5800 5799 5798 5797 5796 5795 5795 5794 5793 5793 5792 5791 5791 5790 5791 5791 5791 5791 5792 5792 5793 5794 5795 5795 5796 5796 5797 5797 5798 5798 5798 5798 5798 5799 5800 5799
5801 5801 5801 5800 5799 5798 5797 5796 5795 5794 5793 5792 5791 5790 5790 5789 5788 5788 5787 5787 5787 5786 5787 5787 5787 5787 5788 5788 5789 5790 5791 5791 5792 5792 5793 5793 5793 5793 5793 5794 5794 5794 5795
5797 5797 5796 5795 5795 5793 5793 5791 5790 5789 5788 5787 5787 5786 5785 5785 5784 5784 5783 5783 5782 5782 5782 5782 5782 5783 5784 5784 5785 5785 5786 5787 5787 5788 5788 5788 5789 5789 5789 5789 5789 5789 5790
5793 5792 5792 5791 5790 5789 5788 5787 5785 5784 5783 5783 5782 5782 5781 5780 5780 5779 5779 5778 5778 5777 5777 5777 5777 5778 5778 5779 5780 5780 5781 5781 5782 5782 5783 5783 5784 5784 5784 5784 5784 5784 5784
5789 5788 5787 5786 5785 5784 5783 5782 5781 5779 5778 5778 5777 5777 5776 5775 5774 5774 5773 5773 5772 5772 5772 5772 5772 5772 5773 5773 5774 5774 5775 5775 5776 5777 5777 5778 5778 5778 5778 5778 5778 5778 5778
5784 5783 5782 5781 5780 5779 5778 5777 5775 5774 5773 5773 5772 5771 5771 5770 5769 5769 5768 5767 5767 5766 5766 5766 5766 5766 5766 5767 5767 5768 5769 5769 5770 5770 5771 5771 5772 5772 5772 5772 5772 5772 5772
5779 5778 5777 5776 5775 5774 5772 5771 5770 5769 5768 5767 5766 5766 5765 5764 5764 5763 5762 5762 5761 5761 5760 5760 5760 5760 5760 5761 5761 5761 5762 5762 5762 5763 5764 5764 5765 5765 5765 5765 5766 5766 5766
5773 5772 5771 5770 5769 5768 5767 5765 5764 5763 5762 5761 5760 5760 5759 5758 5758 5757 5756 5755 5755 5754 5754 5754 5753 5754 5754 5754 5754 5754 5755 5755 5755 5756 5756 5756 5757 5757 5758 5758 5758 5758 5759
5767 5766 5765 5763 5762 5761 5760 5759 5758 5757 5756 5755 5754 5753 5752 5752 5751 5750 5750 5749 5748 5748 5747 5747 5746 5746 5747 5747 5747 5747 5747 5747 5748 5748 5748 5748 5749 5749 5749 5750 5750 5750 5750
5760 5759 5758 5757 5756 5754 5753 5752 5751 5750 5749 5748 5747 5746 5746 5745 5744 5744 5743 5742 5742 5741 5741 5740 5739 5739 5739 5739 5739 5739 5739 5740 5740 5740 5740 5740 5740 5741 5741 5741 5741 5741 5742
5754 5752 5751 5750 5749 5748 5746 5745 5744 5743 5742 5741 5740 5740 5739 5738 5737 5736 5736 5736 5735 5734 5734 5733 5732 5732 5732 5732 5732 5732 5732 5732 5731 5731 5732 5732 5732 5732 5732 5733 5733 5733 5733
5748 5746 5744 5743 5742 5740 5739 5738 5737 5736 5735 5734 5733 5732 5731 5731 5730 5729 5728 5728 5727 5727 5726 5726 5726 5725 5725 5724 5724 5723 5724 5723 5723 5723 5722 5723 5723 5723 5723 5723 5723 5723 5723
5741 5739 5738 5736 5734 5733 5732 5731 5730 5729 5728 5727 5726 5724 5724 5723 5722 5721 5720 5720 5720 5719 5719 5718 5718 5717 5717 5716 5716 5715 5715 5715 5714 5714 5713 5714 5714 5713 5714 5714 5714 5714 5714
5734 5732 5730 5729 5727 5726 5725 5723 5722 5721 5720 5719 5718 5717 5716 5715 5714 5713 5713 5712 5711 5711 5710 5710 5709 5709 5708 5708 5707 5706 5706 5706 5705 5705 5705 5705 5704 5704 5704 5704 5704 5704 5704
5726 5724 5723 5722 5720 5719 5717 5716 5715 5714 5712 5711 5710 5709 5708 5707 5705 5705 5704 5703 5702 5702 5702 5701 5700 5700 5699 5699 5698 5697 5697 5697 5696 5696 5696 5695 5694 5694 5694 5694 5694 5694 5694
5718 5717 5715 5714 5713 5711 5710 5709 5707 5706 5705 5703 5702 5701 5699 5698 5697 5696 5695 5694 5693 5692 5692 5692 5691 5691 5690 5689 5688 5688 5688 5687 5687 5686 5686 5685 5685 5685 5685 5684 5684 5684 5684
5710 5709 5708 5707 5705 5703 5702 5701 5699 5698 5696 5695 5693 5692 5690 5689 5687 5686 5685 5684 5684 5683 5682 5682 5681 5680 5680 5679 5678 5678 5677 5677 5677 5676 5676 5676 5675 5675 5675 5674 5674 5673 5673
5703 5701 5700 5698 5697 5695 5693 5692 5691 5689 5687 5686 5684 5683 5681 5679 5678 5676 5675 5674 5673 5672 5671 5671 5670 5670 5669 5668 5668 5667 5667 5666 5666 5666 5666 5665 5665 5665 5664 5664 5663 5663 5663